Regional Weather Roundup
Issued by NWS

Home | Current Version | Previous Version | Graphics & Text | Print | Product List | Glossary On
Versions: 1 2 3 4 5 6 7 8 9 10 11 12 13 14 15 16 17 18 19 20 21 22 23 24 25 26 27 28 29 30 31 32 33 34 35 36 37 38 39 40 41 42 43 44 45 46 47 48 49 50
000
ASUS43 KMPX 292301
RWRMN
WEATHER ROUNDUP FOR MINNESOTA
NATIONAL WEATHER SERVICE TWIN CITIES/CHANHASSEN MN
600 PM CDT SAT APR 29 2017


NOTE: "FAIR" INDICATES FEW OR NO CLOUDS BELOW 12,000 FEET WITH NO
SIGNIFICANT WEATHER AND/OR OBSTRUCTIONS TO VISIBILITY. N/A MEANS
CURRENT SKY AND/OR WEATHER CONDITIONS ARE NOT AVAILABLE.

MNZ060>063-068>070-300000-
   Twin Cities Metro

CITY           SKY/WX    TMP DP  RH WIND       PRES   REMARKS
TWIN CITIES    CLOUDY    55  21  26 NE20G28   30.17F
ST PAUL        PTSUNNY   54  23  30 NE17G25   30.18F
CRYSTAL        PTSUNNY   54  20  26 NE14      30.17F
BLAINE         CLOUDY    55  21  26 NE14G21   30.17F
LAKEVILLE      PTSUNNY   52  28  40 NE16G25   30.15F
EDEN PRAIRIE   PTSUNNY   55  23  28 NE12      30.15F
SOUTH ST PAUL  PTSUNNY   54  23  30 NE12G26   30.16F
LAKE ELMO      FAIR      54  27  35 NE14G22   30.17F
$$
MNZ001>005-007-008-013>017-022>024-027-028-300000-
   Northwest Minnesota

CITY           SKY/WX    TMP DP  RH WIND       PRES   REMARKS
BEMIDJI        SUNNY     56  22  26 E7        30.26F
HALLOCK        MOSUNNY   61  14  16 S6        30.26F
ROSEAU         SUNNY     57  25  28 S3        30.27F
WARROAD        SUNNY     52  28  40 NE8       30.29F
THIEF RVR FALL SUNNY     57  18  21 E7        30.27F
CROOKSTON      SUNNY     57  21  24 SE3       30.27F
FOSSTON        SUNNY     63  27  25 CALM      30.26F
DETROIT LAKES  SUNNY     55  23  28 N3        30.25F
MOORHEAD       SUNNY     57  21  24 E7        30.25F
PARK RAPIDS    SUNNY     56  17  21 NE10      30.24F
MAHNOMEN       FAIR      56  27  32 N3        30.25F
$$
MNZ006-009>011-018-025>026-300000-
   North Central Minnesota

CITY           SKY/WX    TMP DP  RH WIND       PRES   REMARKS
BAUDETTE       SUNNY     59  19  21 CALM      30.27F
FLAG ISLAND    SUNNY     52  16  24 SE5       30.28F
INTL FALLS     SUNNY     54  16  22 E7        30.30F
WASKISH        MOSUNNY   54  27  35 W6        30.28F
BIG FORK       CLOUDY    57  18  21 E6        30.27F
LONGVILLE      SUNNY     57  19  23 N3        30.25F
GRAND RAPIDS   MOSUNNY   54  18  24 NE8       30.28F
CRANE LAKE     SUNNY     54   9  16 N5        30.32F
ORR            SUNNY     55   9  15 CALM      30.26F
COOK           SUNNY     54  16  22 E5        30.29F
WALKER         FAIR      53  20  27 SE6       30.26F
$$
MNZ012-019>021-037-300000-
   Northeast Minnesota

CITY           SKY/WX    TMP DP  RH WIND       PRES   REMARKS
DULUTH         MOSUNNY   45  17  32 E13       30.31F
ELY            SUNNY     52   7  16 NW5       30.30F
HIBBING        SUNNY     54  15  21 N6        30.28F
EVELETH        SUNNY     55  -3   9 NE7       30.29F
DULUTH HARBOR  CLOUDY    41  34  75 NE12      30.35F
TWO HARBORS    CLOUDY    48  25  40 E13       30.32F
SILVER BAY     CLOUDY    46  18  31 E7        30.33F
GRAND MARAIS     N/A     40  29  64 CALM      30.36F
G MARAIS ARPRT CLOUDY    41  12  30 CALM      30.33F
$$
MNZ029>031-032-039>041-046>048-054>057-064-300000-
   West Central Minnesota

CITY           SKY/WX    TMP DP  RH WIND       PRES   REMARKS
FERGUS FALLS   SUNNY     55  25  30 E10       30.22F
WHEATON        CLOUDY    55  21  26 N10       30.23F
MORRIS         CLOUDY    57  25  28 NE13G18   30.19F
ALEXANDRIA     MOSUNNY   55  21  26 E12       30.22F
ELBOW LAKE     FAIR      55  25  31 E6        30.22F
WADENA         SUNNY     55  25  30 NE12G17   30.22F
GLENWOOD       MOSUNNY   55  23  28 NE15      30.20F
APPLETON       CLOUDY    57  18  21 NE16G22   30.18F
BENSON         PTSUNNY   57   9  14 E9        30.20F
ORTONVILLE     MOSUNNY   55  21  26 NE18G24   30.17F
MADISON        MOSUNNY   57  21  24 NE16G22   30.17F
WILLMAR        FAIR      55  27  33 NE15G21   30.18F
$$
MNZ033>034-036-042>043-049>051-058-059-300000-
   Central Minnesota

CITY           SKY/WX    TMP DP  RH WIND       PRES   REMARKS
ST CLOUD       PTSUNNY   55  19  24 NE17      30.19F
SAUK CENTRE    FAIR      54  25  33 NE14      30.21F
PAYNESVILLE    CLOUDY    54  23  30 N13G21    30.19F
AITKIN         MOSUNNY   57   9  14 N8        30.24F
PINE RIVER     SUNNY     55  25  30 E7        30.26F
BRAINERD       MOSUNNY   54  19  25 E10       30.24F
STAPLES        SUNNY     55  18  22 NE8       30.22F
LONG PRAIRIE   FAIR      54  21  28 NE12      30.22F
LITTLE FALLS   PTSUNNY   54  19  26 N6        30.23F
LITCHFIELD     PTSUNNY   54  25  32 NE15      30.18F
BUFFALO        CLOUDY    54  21  28 N13G18    30.19F
MAPLE LAKE     CLOUDY    54  24  30 NE10G23   30.19F
HUTCHINSON     MOSUNNY   53  27  36 NE20      30.16F
$$
MNZ037-044-045-052-053-300000-
   East Central Minnesota

CITY           SKY/WX    TMP DP  RH WIND       PRES   REMARKS
PRINCETON      PTSUNNY   55  21  26 N15G23    30.20F
MORA           MOSUNNY   50  14  23 NE9G16    30.27F
CAMBRIDGE      MOSUNNY   55  32  41 N10G17    30.18F
RUSH CITY      MOSUNNY   53  25  33 N10G18    30.21F
MOOSE LAKE     MOSUNNY   50  19  29 NE8G17    30.25F
HINCKLEY       FAIR      52  21  30 NE12G20   30.25F
CLOQUET        CLOUDY    46   7  19 E10G17    30.30F
MCGREGOR       MOSUNNY   55  21  26 E12G20    30.25F
$$
MNZ071>073-080-081-089-090-097-098-300000-
   Southwest Minnesota

CITY           SKY/WX    TMP DP  RH WIND       PRES   REMARKS
MONTEVIDEO     MOSUNNY   55  25  30 E17       30.17F
GRANITE FALLS  CLOUDY    56  27  33 N20G25    30.16F
CANBY          CLOUDY    55  22  27 E17G26    30.16F
MARSHALL       PTSUNNY   53  23  31 NE22      30.13F
REDWOOD FALLS  CLOUDY    54  21  27 NE13G24   30.12F
OLIVIA         CLOUDY    54  27  35 NE21      30.13F
PIPESTONE      CLOUDY    52  12  20 E14G25    30.11F
WINDOM         PTSUNNY   50  21  32 NE20G29   30.11R HAZE
WORTHINGTON    CLOUDY    49  22  34 NE25G31   30.09R
JACKSON        CLOUDY    46  27  46 NE21G30   30.09R
TRACY          CLOUDY    53  25  33 NE24G30   30.13F
SLAYTON        PTSUNNY   50  22  33 NE17G30   30.12F
$$
MNZ065>067-074>077-082>085-091>093-300000-
   South Central Minnesota

CITY           SKY/WX    TMP DP  RH WIND       PRES   REMARKS
MANKATO        CLOUDY    51  27  39 NE17      30.10
NEW ULM        CLOUDY    52  21  30 NE17G29   30.09F
ST JAMES       CLOUDY    52  27  37 NE17G23   30.10F
FAIRMONT       PTSUNNY   50  27  40 NE28      30.07F
GLENCOE        CLOUDY    54  26  35 NE9G22    30.15F
FARIBAULT      CLOUDY    52  28  40 NE14G22   30.13F
OWATONNA       PTSUNNY   50  27  40 NE16G23   30.11F
WASECA         PTSUNNY   50  30  46 NE14G24   30.11F
ALBERT LEA     PTSUNNY   48  27  43 NE23G29   30.06F
$$
MNZ078>079-086>088-094>096-300000-
   Southeast Minnesota

CITY           SKY/WX    TMP DP  RH WIND       PRES   REMARKS
ROCHESTER      CLOUDY    48  30  49 NE20      30.11F
RED WING       CLOUDY    54  23  30 NE9G26    30.12F
STANTON        PTSUNNY   53  28  38 NE14G24   30.13F
DODGE CENTER   CLOUDY    48  28  46 NE15G23   30.11F
WINONA         CLOUDY    52  32  46 E9G17     30.14F
AUSTIN         PTSUNNY   48  28  46 NE21G26   30.08S
PRESTON        CLOUDY    46  29  52 NE14G22   30.09F
$$
ABBREVIATIONS USED IN REMARKS
   TC - TEMPERATURES IN CELSIUS
  WCI - WIND CHILL INDEX
   HX - HEAT INDEX
  VSB - VISIBILITY
$$



USA.gov is the U.S. government's official web portal to all federal, state and local government web resources and services.